GW4488 Weather Reports


Display with metric or nautical units.
time (UTC)temp
F
wind
direction
speed
MPH
gust
MPH
rain 1hr
in
rain 24hr
in
rain mn
in
humidity
%
barometer
mb
20260507030633 44 221 3.0 4.0 0.00 0.52 0.52 99 1041.2
20260507030131 44 227 3.0 4.0 0.00 0.52 0.52 99 1041.2
20260507025627 44 222 3.0 3.0 0.02 0.52 0.52 99 1041.3
20260507025124 44 235 3.0 4.0 0.02 0.52 0.52 99 1041.2
20260507024622 44 237 3.0 3.0 0.00 0.51 0.51 99 1041.0
20260507024119 44 251 2.0 3.0 0.02 0.51 0.51 99 1041.1
20260507023615 44 257 2.0 4.0 0.02 0.51 0.51 99 1041.1
20260507023112 44 265 2.0 3.0 0.00 0.51 0.51 99 1041.2
20260507022609 44 275 2.0 4.0 0.00 0.51 0.51 99 1041.1
20260507022104 44 239 3.0 4.0 0.00 0.51 0.51 99 1041.1
20260507021601 44 270 2.0 4.0 0.00 0.51 0.51 99 1041.3
20260507021057 44 235 3.0 4.0 0.00 0.51 0.51 99 1041.3
20260507020555 44 244 3.0 4.0 0.00 0.51 0.51 99 1041.4
20260507020051 44 240 3.0 3.0 0.00 0.51 0.51 99 1041.4
20260507015550 44 262 2.0 4.0 0.00 0.51 0.51 99 1041.6
20260507015047 44 216 4.0 4.0 0.00 0.51 0.51 99 1041.5
20260507014543 44 248 3.0 4.0 0.00 0.51 0.51 99 1041.4
20260507014039 44 243 3.0 3.0 0.00 0.51 0.51 99 1041.5
20260507013536 44 248 3.0 3.0 0.00 0.51 0.51 99 1041.4
20260507013033 44 244 3.0 4.0 0.00 0.51 0.51 99 1041.7
20260507012530 44 257 2.0 3.0 0.00 0.51 0.51 99 1041.6
20260507012026 44 259 2.0 4.0 0.00 0.51 0.51 99 1041.3
20260507011524 43 256 3.0 4.0 0.00 0.51 0.51 99 1041.4
20260507011020 43 250 2.0 4.0 0.00 0.51 0.51 99 1041.4
20260507010514 43 261 2.0 4.0 0.00 0.51 0.51 99 1041.1
20260507010011 43 243 3.0 4.0 0.00 0.51 0.51 99 1041.4
20260507005509 43 261 2.0 3.0 0.00 0.51 0.51 99 1041.3
20260507005005 43 236 2.0 4.0 0.00 0.51 0.51 99 1041.1
20260507004502 43 262 2.0 4.0 0.00 0.51 0.51 99 1041.1
20260507004000 44 266 3.0 5.0 0.00 0.51 0.51 99 1041.2
20260507003454 44 234 3.0 4.0 0.00 0.51 0.51 99 1041.0
20260507002949 44 263 3.0 3.0 0.00 0.51 0.51 99 1040.8
20260507002441 44 244 3.0 4.0 0.00 0.51 0.51 99 1040.9
20260507001937 44 252 2.0 3.0 0.00 0.51 0.51 99 1040.6
20260507001434 45 249 3.0 3.0 0.00 0.51 0.51 99 1040.6
20260507000932 45 248 3.0 4.0 0.00 0.51 0.51 99 1040.9
20260507000427 45 259 3.0 4.0 0.00 0.51 0.51 99 1041.0
20260506235923 45 262 2.0 4.0 0.00 0.51 0.51 99 1040.7
20260506235421 46 229 3.0 4.0 0.00 0.51 0.51 99 1040.8
20260506234915 46 244 3.0 4.0 0.00 0.51 0.51 99 1040.6
20260506234414 46 223 4.0 4.0 0.00 0.51 0.51 99 1040.9
20260506233911 46 243 2.0 4.0 0.00 0.51 0.51 99 1040.7
20260506233407 46 227 3.0 4.0 0.00 0.51 0.51 99 1040.4
20260506232904 46 246 3.0 4.0 0.00 0.51 0.51 99 1040.5
20260506232400 46 254 2.0 5.0 0.00 0.51 0.51 99 1040.3
20260506231856 46 229 3.0 4.0 0.00 0.51 0.51 99 1040.2
20260506231354 46 227 3.0 4.0 0.00 0.51 0.51 99 1040.3
20260506230851 46 244 3.0 4.0 0.00 0.51 0.51 99 1040.4
20260506230348 46 255 3.0 5.0 0.00 0.51 0.51 99 1040.3
20260506225844 46 210 4.0 4.0 0.00 0.51 0.51 99 1040.3
20260506225342 46 234 3.0 4.0 0.00 0.51 0.51 99 1040.1
20260506224838 46 235 3.0 5.0 0.00 0.51 0.51 99 1040.3
20260506224336 46 236 3.0 5.0 0.00 0.51 0.51 99 1040.0
20260506223832 46 248 3.0 5.0 0.00 0.51 0.51 99 1040.2
20260506223327 46 229 3.0 3.0 0.00 0.51 0.51 99 1040.0
20260506222825 46 235 3.0 4.0 0.00 0.51 0.51 99 1040.0
20260506222320 46 266 3.0 6.0 0.00 0.51 0.51 99 1040.1
20260506221818 46 218 3.0 4.0 0.00 0.51 0.51 99 1040.0
20260506221316 46 236 5.0 5.0 0.00 0.51 0.51 99 1039.9
20260506220813 46 210 3.0 4.0 0.00 0.51 0.51 99 1040.1
20260506220308 46 250 3.0 5.0 0.00 0.51 0.51 99 1039.9
20260506215805 46 221 4.0 7.0 0.00 0.51 0.51 99 1040.1
20260506215301 46 226 4.0 4.0 0.00 0.51 0.51 99 1040.3
20260506214756 46 214 4.0 4.0 0.00 0.51 0.51 99 1040.1
20260506214254 46 223 4.0 5.0 0.00 0.51 0.51 99 1039.9
20260506213752 46 236 3.0 5.0 0.00 0.51 0.51 99 1039.9
20260506213248 46 247 3.0 5.0 0.00 0.51 0.51 99 1040.0
20260506212746 46 247 3.0 4.0 0.00 0.51 0.51 99 1039.8
20260506212242 46 235 5.0 6.0 0.00 0.51 0.51 99 1040.0
20260506211737 46 220 3.0 6.0 0.00 0.51 0.51 99 1039.8
20260506211233 46 229 3.0 4.0 0.00 0.51 0.51 99 1039.8
20260506210730 46 250 2.0 4.0 0.00 0.51 0.51 99 1039.8
20260506210222 46 249 6.0 6.0 0.00 0.51 0.51 99 1039.9
20260506205719 46 251 3.0 5.0 0.00 0.51 0.51 99 1039.9
20260506205214 46 238 4.0 5.0 0.00 0.51 0.51 99 1039.6
20260506204712 46 246 3.0 5.0 0.00 0.51 0.51 99 1039.4
20260506204209 46 242 5.0 5.0 0.00 0.51 0.51 99 1039.2
20260506203707 46 210 3.0 7.0 0.00 0.51 0.51 99 1039.2
20260506203204 46 233 5.0 6.0 0.00 0.51 0.51 99 1039.1
20260506202701 46 186 1.0 4.0 0.00 0.51 0.51 99 1039.3
20260506202157 46 229 3.0 4.0 0.00 0.51 0.51 99 1038.9
20260506201654 46 231 3.0 5.0 0.00 0.51 0.51 99 1039.0
20260506201150 46 229 3.0 5.0 0.00 0.51 0.51 99 1038.6
20260506200648 46 245 4.0 6.0 0.00 0.51 0.51 99 1038.7
20260506200144 46 206 3.0 6.0 0.00 0.51 0.51 99 1038.7
20260506195641 46 273 3.0 9.0 0.00 0.51 0.51 99 1038.9
20260506195137 46 223 4.0 7.0 0.00 0.51 0.51 99 1038.7
20260506194635 46 244 3.0 6.0 0.00 0.51 0.51 99 1038.6
20260506194131 47 234 4.0 5.0 0.00 0.51 0.51 99 1038.5
20260506193629 47 261 3.0 9.0 0.00 0.51 0.51 99 1038.5
20260506193126 47 255 4.0 6.0 0.00 0.51 0.51 99 1038.6
20260506192623 47 209 3.0 5.0 0.00 0.51 0.51 99 1038.2
20260506192118 47 256 3.0 6.0 0.00 0.51 0.51 99 1038.6
20260506191615 47 252 3.0 5.0 0.02 0.51 0.51 99 1038.6
20260506191111 47 258 6.0 6.0 0.00 0.50 0.50 99 1038.4
20260506190609 47 233 3.0 5.0 0.00 0.50 0.50 99 1038.3
20260506190106 47 219 3.0 6.0 0.00 0.50 0.50 99 1038.4
20260506185603 47 264 3.0 6.0 0.00 0.50 0.50 99 1038.5
20260506185059 47 255 4.0 8.0 0.00 0.50 0.50 99 1038.2
20260506184556 47 237 3.0 7.0 0.00 0.50 0.50 99 1038.3
20260506184054 47 210 0.0 4.0 0.02 0.50 0.50 99 1038.4
20260506183550 47 251 3.0 4.0 0.02 0.50 0.50 99 1038.4
20260506183046 47 241 4.0 4.0 0.00 0.50 0.50 99 1038.2
20260506182544 47 220 3.0 4.0 0.00 0.50 0.50 99 1038.0
20260506182041 47 233 2.0 6.0 0.00 0.50 0.50 99 1038.0
20260506181539 47 237 3.0 7.0 0.02 0.50 0.50 99 1038.0
20260506181035 47 180 2.0 6.0 0.02 0.50 0.50 99 1037.8
20260506180532 48 254 3.0 5.0 0.02 0.50 0.50 99 1037.7
20260506180029 47 241 3.0 5.0 0.02 0.50 0.50 99 1037.6
20260506175525 47 260 3.0 8.0 0.02 0.49 0.49 99 1037.8
20260506175022 47 216 2.0 5.0 0.02 0.49 0.49 99 1037.6
20260506174520 47 238 3.0 7.0 0.00 0.49 0.49 99 1037.6
20260506174016 47 239 3.0 8.0 0.00 0.49 0.49 99 1037.7
20260506173514 47 248 3.0 4.0 0.00 0.49 0.49 99 1037.4
20260506173011 47 240 3.0 4.0 0.00 0.49 0.49 99 1037.7
20260506172508 47 237 3.0 4.0 0.00 0.49 0.49 99 1037.6
20260506172004 47 236 5.0 6.0 0.00 0.49 0.49 99 1037.4
20260506171502 47 228 4.0 6.0 0.02 0.49 0.49 99 1037.4
20260506170959 47 246 3.0 5.0 0.02 0.49 0.49 99 1037.4
20260506170456 47 245 4.0 6.0 0.00 0.48 0.48 99 1037.3
20260506165954 47 202 2.0 4.0 0.00 0.48 0.48 99 1037.5
20260506165452 47 231 3.0 5.0 0.00 0.48 0.48 99 1037.6
20260506164942 47 238 5.0 5.0 0.00 0.48 0.48 99 1037.4
20260506164439 47 246 1.0 5.0 0.00 0.48 0.48 99 1037.7
20260506163937 46 243 3.0 5.0 0.02 0.48 0.48 99 1037.6
20260506163431 46 260 2.0 7.0 0.02 0.48 0.48 99 1037.3
20260506162926 46 230 2.0 4.0 0.00 0.48 0.48 99 1037.2
20260506162424 47 239 4.0 5.0 0.00 0.48 0.48 99 1037.4
20260506161916 47 219 3.0 4.0 0.00 0.48 0.48 99 1037.5
20260506161414 46 245 2.0 5.0 0.00 0.48 0.48 99 1037.4
20260506160905 46 225 4.0 4.0 0.00 0.48 0.48 99 1037.6
20260506160402 46 239 3.0 5.0 0.00 0.48 0.48 99 1037.2
20260506155900 46 232 3.0 6.0 0.00 0.48 0.48 99 1037.1
20260506155356 46 232 4.0 5.0 0.00 0.48 0.48 99 1037.2
20260506153514 45 245 2.0 5.0 0.00 0.48 0.48 99 1037.2
20260506153011 45 236 2.0 5.0 0.02 0.48 0.48 99 1037.3
20260506152508 45 258 4.0 5.0 0.00 0.47 0.47 99 1037.4
20260506152006 45 240 3.0 5.0 0.00 0.47 0.47 99 1037.3
20260506151503 45 226 3.0 4.0 0.00 0.47 0.47 99 1037.2
20260506151000 45 246 5.0 5.0 0.02 0.47 0.47 99 1037.2
20260506150456 44 243 3.0 8.0 0.00 0.47 0.47 99 1037.3
20260506145954 45 231 5.0 7.0 0.00 0.47 0.47 99 1037.4
20260506145450 45 233 3.0 5.0 0.00 0.47 0.47 99 1037.3
20260506144948 45 252 4.0 8.0 0.02 0.47 0.47 99 1037.2
20260506144444 45 228 4.0 4.0 0.02 0.47 0.47 99 1037.3
20260506143942 44 272 5.0 7.0 0.05 0.47 0.47 99 1037.1
20260506143439 45 240 3.0 5.0 0.02 0.46 0.46 99 1037.0
20260506142938 45 225 4.0 5.0 0.02 0.46 0.46 99 1036.8
20260506142435 45 240 3.0 5.0 0.05 0.46 0.46 99 1036.8
20260506141933 45 237 3.0 4.0 0.05 0.45 0.45 99 1036.7
20260506141430 45 213 3.0 4.0 0.02 0.45 0.45 99 1036.9
20260506140929 45 229 3.0 4.0 0.00 0.45 0.45 99 1036.7
20260506140425 45 229 3.0 5.0 0.02 0.45 0.45 99 1036.9
20260506135922 45 255 2.0 4.0 0.02 0.45 0.45 99 1037.0
20260506135420 45 229 4.0 5.0 0.02 0.44 0.44 99 1036.9
20260506134916 45 226 4.0 4.0 0.12 0.44 0.44 99 1037.1
20260506134412 45 239 4.0 5.0 0.19 0.44 0.44 99 1037.2
20260506133909 45 222 3.0 6.0 0.07 0.41 0.41 99 1037.1
20260506133406 45 226 3.0 7.0 0.07 0.41 0.41 99 1037.2
20260506132902 45 249 3.0 6.0 0.07 0.40 0.40 99 1037.1
20260506132359 45 242 4.0 7.0 0.09 0.39 0.39 99 1036.8
20260506131857 46 250 4.0 5.0 0.09 0.39 0.39 99 1036.8
20260506131353 46 250 3.0 4.0 0.09 0.38 0.38 99 1037.1
20260506130851 46 243 3.0 4.0 0.05 0.37 0.37 99 1037.2
20260506130347 46 254 4.0 7.0 0.07 0.36 0.36 99 1037.3
20260506125845 46 227 3.0 5.0 0.09 0.36 0.36 99 1037.2
20260506125343 46 233 5.0 5.0 0.12 0.35 0.35 99 1037.0
20260506124841 46 227 5.0 6.0 0.17 0.34 0.34 99 1037.1
20260506124338 48 252 2.0 5.0 0.21 0.33 0.33 99 1037.3
20260506123835 48 225 3.0 4.0 0.17 0.31 0.31 99 1036.9
20260506123334 48 251 2.0 5.0 0.07 0.29 0.29 99 1036.9
20260506122831 48 228 4.0 4.0 0.07 0.28 0.28 99 1036.7
20260506122327 48 251 4.0 4.0 0.07 0.28 0.28 99 1036.8
20260506121826 48 262 3.0 5.0 0.12 0.27 0.27 99 1036.7
20260506121322 48 233 3.0 4.0 0.09 0.26 0.26 99 1036.7
20260506120820 48 240 4.0 5.0 0.12 0.25 0.25 99 1036.6
20260506120317 48 253 3.0 4.0 0.12 0.24 0.24 99 1036.5
20260506115814 48 241 3.0 4.0 0.09 0.23 0.23 99 1036.7
20260506115313 48 235 3.0 5.0 0.07 0.22 0.22 99 1036.5
20260506114810 48 262 3.0 5.0 0.02 0.22 0.22 99 1036.5
20260506114308 48 260 3.0 4.0 0.02 0.21 0.21 99 1036.7
20260506113806 48 237 3.0 4.0 0.05 0.21 0.21 99 1036.6
20260506113303 48 249 3.0 4.0 0.07 0.21 0.21 99 1036.5
20260506112800 48 240 3.0 4.0 0.05 0.20 0.20 99 1036.4
20260506112257 48 231 3.0 5.0 0.07 0.20 0.20 99 1036.3
20260506111754 48 290 2.0 5.0 0.09 0.19 0.19 99 1036.2
20260506111252 48 246 3.0 4.0 0.09 0.18 0.18 99 1036.6
20260506110749 48 243 3.0 4.0 0.09 0.17 0.17 99 1036.6
20260506110247 48 227 3.0 4.0 0.12 0.17 0.17 99 1036.4
20260506105743 48 251 2.0 4.0 0.12 0.16 0.16 99 1036.7
20260506105240 48 236 3.0 4.0 0.09 0.14 0.14 99 1036.8
20260506104738 48 248 3.0 3.0 0.07 0.13 0.13 99 1036.7
20260506104235 48 247 3.0 3.0 0.07 0.13 0.13 99 1036.6
20260506103732 48 263 3.0 3.0 0.07 0.12 0.12 99 1036.6
20260506103230 48 265 2.0 3.0 0.02 0.11 0.11 99 1036.6
20260506102727 47 266 2.0 3.0 0.05 0.11 0.11 99 1036.7
20260506102225 47 255 2.0 3.0 0.07 0.11 0.11 99 1036.8
20260506101722 47 270 2.0 3.0 0.07 0.10 0.10 99 1036.6
20260506101218 47 278 2.0 3.0 0.07 0.09 0.09 99 1036.7
20260506100716 47 270 2.0 3.0 0.07 0.09 0.09 99 1037.0
20260506100214 47 270 2.0 2.0 0.09 0.08 0.08 99 1036.8
20260506095712 47 286 2.0 2.0 0.07 0.07 0.07 99 1036.8
20260506095209 47 279 2.0 2.0 0.05 0.07 0.07 99 1037.2
20260506094706 47 294 1.0 2.0 0.07 0.06 0.06 99 1037.1
20260506094204 47 265 2.0 2.0 0.07 0.06 0.06 99 1037.0
20260506093703 47 257 2.0 2.0 0.05 0.05 0.05 99 1036.9
20260506093159 47 250 2.0 3.0 0.09 0.05 0.05 99 1036.9
20260506092657 47 270 2.0 3.0 0.07 0.04 0.04 99 1036.9
20260506092154 47 265 2.0 4.0 0.07 0.03 0.03 99 1037.0
20260506091652 47 246 3.0 5.0 0.05 0.02 0.02 99 1037.4
20260506091149 47 265 2.0 3.0 0.05 0.02 0.02 99 1037.4
20260506090647 47 253 3.0 3.0 0.02 0.02 0.02 99 1037.5
20260506090143 47 253 3.0 3.0 0.02 0.01 0.01 99 1037.7
20260506085640 47 270 2.0 2.0 0.05 0.01 0.01 99 1037.3
20260506085136 47 270 2.0 3.0 0.02 0.01 0.01 99 1037.1
20260506084633 47 261 3.0 3.0 0.00 0.00 0.00 99 1037.1
20260506084130 47 290 2.0 2.0 0.00 0.00 0.00 99 1037.0
20260506083627 47 275 2.0 3.0 0.00 0.00 0.00 99 1037.1
20260506083125 47 270 1.0 2.0 0.00 0.00 0.00 99 1037.1
20260506082621 47 270 2.0 2.0 0.00 0.00 0.00 99 1037.1
20260506082117 47 270 2.0 2.0 0.02 0.00 0.00 99 1037.0
20260506081615 47 275 2.0 2.0 0.02 0.00 0.00 99 1037.0
20260506081112 47 265 2.0 2.0 0.00 0.00 0.00 99 1037.1
20260506080610 47 276 1.0 2.0 0.00 0.00 0.00 99 1037.1
20260506080106 47 270 1.0 2.0 0.00 0.00 0.00 99 1037.3
20260506073050 47 283 2.0 2.0 0.00 0.00 0.00 99 1037.1
20260506072547 47 282 1.0 2.0 0.00 0.00 0.00 99 1037.5
20260506072045 47 250 2.0 2.0 0.00 0.00 0.00 99 1037.4
20260506071543 47 241 2.0 3.0 0.00 0.00 0.00 99 1037.4
20260506071040 47 270 1.0 2.0 0.00 0.00 0.00 99 1037.4
20260506070537 47 265 2.0 2.0 0.00 0.00 0.00 99 1037.7
20260506062514 47 264 2.0 2.0 0.00 0.00 0.00 99 1038.2
20260506062011 47 264 1.0 2.0 0.00 0.00 0.00 99 1038.3
20260506061506 47 262 2.0 2.0 0.00 0.00 0.00 99 1038.2
20260506061005 46 270 1.0 2.0 0.00 0.00 0.00 99 1038.5
20260506060503 46 270 2.0 2.0 0.00 0.00 0.00 99 1038.7
20260506050931 46 280 2.0 3.0 0.00 0.00 0.00 99 1039.3
20260506050429 46 270 2.0 2.0 0.00 0.00 0.00 99 1039.1
20260506044920 46 283 1.0 2.0 0.00 0.00 0.00 99 1039.2
20260506044418 46 255 2.0 3.0 0.00 0.00 0.00 99 1039.0
20260506043915 46 255 1.0 2.0 0.00 0.00 0.00 99 1039.4
20260506043412 47 270 2.0 3.0 0.00 0.00 0.00 99 1039.4
20260506042910 47 270 1.0 2.0 0.00 0.00 0.00 99 1039.5
20260506042409 47 248 2.0 2.0 0.00 0.00 0.00 99 1039.3
20260506041906 48 270 2.0 3.0 0.00 0.00 0.00 98 1039.3
20260506041404 48 276 1.0 2.0 0.00 0.00 0.00 97 1039.2
20260506040901 48 266 2.0 3.0 0.00 0.00 0.00 97 1039.2
20260506040358 48 283 2.0 3.0 0.00 0.00 0.00 96 1039.1
20260506035854 49 289 2.0 3.0 0.00 0.19 0.19 96 1039.0
20260506035352 49 279 2.0 3.0 0.00 0.19 0.19 96 1039.1
20260506034849 49 270 1.0 3.0 0.00 0.19 0.19 95 1039.0
20260506034346 49 270 2.0 3.0 0.00 0.19 0.19 96 1039.1
20260506033843 49 282 2.0 3.0 0.00 0.19 0.19 95 1039.3
20260506033340 50 257 2.0 3.0 0.00 0.19 0.19 95 1039.3
20260506032837 50 270 2.0 3.0 0.00 0.19 0.19 95 1039.1
20260506032333 50 265 2.0 3.0 0.00 0.19 0.19 94 1039.3
20260506031830 50 261 3.0 3.0 0.00 0.19 0.19 94 1039.5
20260506031328 50 243 6.0 6.0 0.00 0.19 0.19 95 1039.6